Temp
59 60 60 61 61 62 62 62 62 61 62 62 62 63 62 63 62 61 61 60 59 59 60 60 60 60 58 59 60 60 60 58 57 57 56 55 55 55 55 55 55 54
57 58 59 59 59 60 60 60 60 61 60 61 62 62 62 61 60 60 59 59 60 59 59 59 60 60 59 59 59 58 57 57 56 56 55 54 53 53 53 54 53 53
56 56 56 56 57 57 58 59 59 59 59 59 60 60 59 59 58 59 59 59 59 59 60 59 59 58 58 58 57 57 56 56 55 56 55 54 54 53 53 54 53 53
55 55 56 55 56 56 57 57 57 57 58 57 58 58 58 57 58 57 58 55 57 58 59 60 59 58 58 58 57 56 56 56 56 56 54 54 53 53 53 53 53 53
54 55 56 55 56 55 55 54 55 56 56 57 57 58 58 57 56 57 56 57 57 57 57 57 58 58 57 57 57 56 56 56 56 55 54 54 54 53 52 52 52 51
54 54 54 54 54 54 54 54 55 55 55 55 55 56 56 55 55 55 55 55 55 55 55 56 56 57 57 56 56 56 55 55 55 54 53 51 52 53 52 52 51 51
53 53 52 53 52 53 53 54 53 53 54 54 54 53 54 53 53 53 54 54 54 54 54 54 55 55 55 55 54 54 55 54 53 52 51 50 51 51 51 51 51 50
51 51 51 51 51 51 51 52 52 52 51 51 51 53 53 52 52 53 52 53 53 53 53 53 53 53 54 53 52 51 51 51 51 50 49 49 49 48 48 49 48 47
50 50 49 49 49 51 50 50 50 49 49 49 50 51 51 51 51 52 51 51 51 51 51 50 50 51 51 51 50 49 48 49 49 49 48 47 46 46 46 47 46 45
50 49 49 49 49 50 48 49 49 49 48 48 49 49 49 50 50 50 50 49 48 48 47 47 46 47 47 48 48 48 47 47 48 48 47 47 46 46 46 45 45 45
49 49 49 48 48 48 47 47 47 48 47 46 47 48 48 49 49 49 48 48 47 47 47 47 46 47 46 47 47 47 47 46 46 47 47 46 46 45 42 45 45 44
48 48 48 48 47 48 47 47 47 47 47 48 47 47 47 47 47 48 48 48 48 49 48 47 47 47 47 47 48 48 48 47 46 45 44 45 46 45 45 45 45 45
47 47 47 47 47 47 47 47 47 46 46 46 47 46 46 47 47 47 48 47 47 47 47 47 48 48 49 49 49 48 48 46 46 45 45 45 45 45 45 45 45 45
46 46 46 46 46 47 47 47 46 47 46 46 46 46 46 46 47 46 47 47 47 47 47 48 47 47 47 48 48 48 47 47 47 46 45 45 45 45 45 45 45 45
46 46 46 47 46 46 46 46 46 46 46 46 46 47 46 46 46 46 46 46 47 47 47 47 45 45 46 47 47 47 48 47 47 46 45 44 44 44 45 45 45 45
45 46 46 46 45 45 45 45 46 46 46 46 46 47 47 47 46 45 45 46 46 47 47 45 45 46 42 40 40 44 46 46 46 46 46 45 44 43 44 45 45 46
45 45 45 44 44 44 44 43 44 44 44 44 45 45 46 46 45 46 47 47 46 46 46 45 45 45 41 41 41 41 42 44 44 45 46 46 45 44 44 45 46 47
43 43 43 43 42 42 42 42 41 40 41 43 43 42 43 44 44 44 45 46 45 46 45 46 46 41 42 41 41 41 41 43 45 45 45 46 46 46 46 46 46 47
42 42 42 42 41 40 38 38 38 39 39 39 39 40 40 41 43 43 44 44 45 44 45 45 46 42 42 41 41 41 41 41 45 45 45 45 46 47 47 47 47 46
41 41 40 41 40 39 40 38 38 38 39 39 40 39 40 40 40 41 43 43 43 43 44 45 45 42 41 41 40 40 41 41 44 44 45 45 45 46 46 46 46 46
40 40 39 39 39 37 37 37 37 37 37 38 39 39 38 38 39 39 38 38 40 40 42 42 43 41 41 40 40 40 41 41 44 44 44 44 45 46 46 46 46 46
39 38 38 38 37 36 36 36 36 36 36 38 38 38 38 39 39 38 38 37 38 38 40 40 43 41 40 40 40 40 41 41 43 43 43 44 44 45 45 46 47 46
37 36 35 36 35 34 33 34 34 35 36 37 35 36 37 36 36 37 38 37 37 37 37 39 40 40 40 40 40 40 40 40 40 40 41 42 43 44 44 45 45 45
36 35 33 32 32 32 32 33 34 35 35 36 34 35 35 35 36 37 37 37 36 36 37 36 37 39 38 39 39 39 39 38 39 40 39 39 40 43 44 44 44 38
34 32 31 31 31 31 31 31 32 33 34 35 35 34 34 36 37 36 36 36 36 36 35 36 36 37 38 39 39 39 40 38 39 39 38 38 39 40 43 44 44 41
31 30 30 29 29 30 30 31 32 33 33 32 33 34 35 36 36 35 33 35 36 36 36 37 37 38 38 38 39 39 39 38 39 39 37 37 38 39 39 39 42 43
MSLP
1020.10 1020.02 1020.04 1020.00 1020.02 1019.98 1020.02 1020.04 1020.04 1020.14 1020.02 1019.94 1019.96 1019.90 1020.00 1020.00 1020.20 1020.40 1020.46 1020.60 1020.66 1020.62 1020.54 1020.48 1020.44 1020.50 1020.58 1020.56 1020.48 1020.36 1020.28 1020.34 1020.48 1020.58 1020.72 1020.78 1020.74 1020.84 1020.84 1020.80 1020.92 1020.94
1020.26 1020.28 1020.20 1020.18 1020.08 1020.14 1020.24 1020.28 1020.20 1020.10 1020.10 1020.04 1019.98 1019.94 1019.92 1020.08 1020.24 1020.40 1020.46 1020.48 1020.44 1020.48 1020.46 1020.40 1020.36 1020.38 1020.36 1020.34 1020.30 1020.28 1020.18 1020.18 1020.24 1020.28 1020.42 1020.46 1020.46 1020.60 1020.54 1020.58 1020.70 1020.72
1020.36 1020.42 1020.42 1020.36 1020.20 1020.18 1020.22 1020.24 1020.32 1020.26 1020.20 1020.16 1020.14 1020.16 1020.16 1020.24 1020.30 1020.32 1020.38 1020.36 1020.30 1020.20 1020.20 1020.26 1020.32 1020.30 1020.32 1020.28 1020.24 1020.20 1020.14 1020.04 1020.00 1019.96 1020.04 1020.04 1020.10 1020.20 1020.18 1020.28 1020.34 1020.34
1020.38 1020.44 1020.38 1020.34 1020.32 1020.34 1020.28 1020.34 1020.36 1020.32 1020.26 1020.24 1020.22 1020.24 1020.28 1020.28 1020.32 1020.30 1020.26 1020.36 1020.34 1020.22 1020.16 1020.08 1020.10 1020.16 1020.14 1020.12 1020.10 1020.02 1019.86 1019.80 1019.74 1019.82 1019.86 1019.78 1019.76 1019.82 1019.86 1019.92 1019.88 1019.92
1020.34 1020.32 1020.30 1020.34 1020.34 1020.44 1020.48 1020.40 1020.36 1020.30 1020.30 1020.24 1020.22 1020.22 1020.18 1020.20 1020.26 1020.22 1020.24 1020.22 1020.22 1020.20 1020.12 1020.10 1020.06 1020.02 1020.02 1020.00 1019.96 1019.82 1019.68 1019.62 1019.56 1019.64 1019.64 1019.54 1019.46 1019.62 1019.62 1019.68 1019.58 1019.58
1020.28 1020.42 1020.48 1020.52 1020.52 1020.58 1020.58 1020.40 1020.26 1020.32 1020.36 1020.38 1020.32 1020.28 1020.28 1020.34 1020.34 1020.28 1020.24 1020.26 1020.18 1020.14 1020.14 1020.08 1020.00 1019.88 1019.84 1019.84 1019.82 1019.64 1019.56 1019.50 1019.40 1019.52 1019.54 1019.52 1019.42 1019.38 1019.34 1019.36 1019.32 1019.20
1020.54 1020.64 1020.72 1020.76 1020.80 1020.80 1020.86 1020.58 1020.36 1020.44 1020.52 1020.52 1020.60 1020.60 1020.48 1020.46 1020.38 1020.32 1020.24 1020.18 1020.14 1020.12 1020.10 1020.04 1019.92 1019.84 1019.78 1019.76 1019.68 1019.52 1019.44 1019.42 1019.42 1019.48 1019.48 1019.40 1019.36 1019.24 1019.18 1019.12 1019.06 1018.94
1020.86 1021.00 1021.16 1021.12 1021.14 1021.08 1021.08 1020.84 1020.54 1020.52 1020.70 1020.84 1020.78 1020.58 1020.58 1020.54 1020.44 1020.36 1020.34 1020.26 1020.20 1020.16 1020.12 1020.02 1019.98 1019.86 1019.78 1019.74 1019.74 1019.70 1019.62 1019.56 1019.50 1019.48 1019.44 1019.32 1019.28 1019.10 1019.04 1019.04 1018.98 1018.86
1021.26 1021.32 1021.38 1021.34 1021.34 1021.22 1021.24 1020.92 1020.68 1020.66 1020.84 1020.90 1020.76 1020.64 1020.64 1020.60 1020.54 1020.44 1020.40 1020.36 1020.30 1020.24 1020.18 1020.16 1020.04 1019.94 1019.84 1019.82 1019.78 1019.80 1019.70 1019.56 1019.44 1019.40 1019.32 1019.22 1019.14 1018.94 1018.90 1018.88 1018.82 1018.62
1021.30 1021.40 1021.40 1021.42 1021.44 1021.42 1021.40 1021.06 1020.78 1020.70 1020.84 1020.92 1020.84 1020.80 1020.74 1020.62 1020.64 1020.60 1020.52 1020.52 1020.54 1020.44 1020.38 1020.32 1020.24 1020.14 1020.02 1019.92 1019.86 1019.82 1019.70 1019.52 1019.38 1019.30 1019.16 1019.02 1018.92 1018.78 1018.70 1018.66 1018.50 1018.32
1021.36 1021.42 1021.44 1021.42 1021.44 1021.40 1021.40 1021.18 1020.90 1020.74 1020.80 1020.88 1020.86 1020.76 1020.70 1020.64 1020.58 1020.58 1020.56 1020.50 1020.48 1020.36 1020.26 1020.20 1020.08 1020.00 1019.90 1019.80 1019.72 1019.64 1019.56 1019.42 1019.22 1019.08 1018.92 1018.78 1018.64 1018.52 1018.44 1018.36 1018.18 1017.94
1021.54 1021.54 1021.54 1021.46 1021.44 1021.40 1021.40 1021.24 1020.96 1020.78 1020.76 1020.68 1020.74 1020.72 1020.66 1020.58 1020.56 1020.48 1020.44 1020.38 1020.26 1020.14 1020.08 1020.04 1019.92 1019.82 1019.72 1019.58 1019.42 1019.26 1019.14 1019.04 1018.96 1018.88 1018.70 1018.50 1018.28 1018.10 1017.98 1017.90 1017.74 1017.46
1021.80 1021.84 1021.76 1021.62 1021.56 1021.54 1021.44 1021.20 1020.98 1020.82 1020.76 1020.74 1020.68 1020.70 1020.58 1020.46 1020.40 1020.38 1020.28 1020.24 1020.14 1020.04 1019.96 1019.80 1019.64 1019.48 1019.32 1019.16 1019.04 1018.92 1018.80 1018.72 1018.60 1018.44 1018.22 1018.04 1017.80 1017.62 1017.46 1017.32 1017.18 1016.98
1022.12 1022.12 1021.98 1021.90 1021.82 1021.66 1021.46 1021.22 1021.04 1020.88 1020.84 1020.78 1020.72 1020.62 1020.50 1020.44 1020.36 1020.30 1020.20 1020.16 1020.06 1019.96 1019.82 1019.70 1019.56 1019.38 1019.20 1019.04 1018.86 1018.66 1018.52 1018.38 1018.22 1018.00 1017.76 1017.52 1017.28 1017.10 1016.92 1016.72 1016.52 1016.30
1022.36 1022.30 1022.18 1022.04 1021.92 1021.68 1021.44 1021.26 1021.08 1021.00 1020.92 1020.82 1020.72 1020.62 1020.58 1020.46 1020.38 1020.32 1020.20 1020.04 1019.90 1019.82 1019.70 1019.62 1019.54 1019.32 1019.08 1018.92 1018.74 1018.46 1018.26 1018.04 1017.86 1017.68 1017.46 1017.18 1016.88 1016.64 1016.40 1016.20 1015.94 1015.66
1022.48 1022.42 1022.28 1022.10 1021.94 1021.70 1021.56 1021.40 1021.22 1021.10 1020.98 1020.86 1020.74 1020.60 1020.52 1020.42 1020.34 1020.24 1020.16 1019.98 1019.80 1019.62 1019.52 1019.48 1019.34 1019.04 1018.84 1018.90 1018.88 1018.68 1018.32 1017.98 1017.66 1017.40 1017.16 1016.84 1016.54 1016.24 1015.90 1015.66 1015.34 1015.02
1022.58 1022.52 1022.36 1022.20 1022.06 1021.94 1021.84 1021.70 1021.52 1021.38 1021.26 1021.04 1020.90 1020.76 1020.60 1020.42 1020.30 1020.12 1019.90 1019.74 1019.66 1019.54 1019.36 1019.18 1018.98 1018.68 1018.58 1018.62 1018.52 1018.42 1018.34 1017.90 1017.52 1017.08 1016.74 1016.48 1016.18 1015.88 1015.46 1015.02 1014.68 1014.38
1022.82 1022.72 1022.54 1022.34 1022.24 1022.18 1022.06 1021.94 1021.80 1021.66 1021.42 1021.24 1021.06 1020.84 1020.62 1020.50 1020.36 1020.08 1019.86 1019.66 1019.50 1019.34 1019.16 1018.90 1018.62 1018.34 1018.26 1018.16 1018.10 1017.94 1017.88 1017.66 1017.14 1016.72 1016.26 1015.86 1015.54 1015.26 1014.90 1014.54 1014.12 1013.72
1022.90 1022.74 1022.54 1022.38 1022.30 1022.26 1022.08 1021.94 1021.74 1021.58 1021.32 1021.16 1021.02 1020.80 1020.64 1020.42 1020.14 1019.96 1019.76 1019.50 1019.34 1019.08 1018.84 1018.54 1018.24 1017.96 1017.98 1017.86 1017.70 1017.54 1017.34 1017.28 1016.80 1016.32 1015.94 1015.44 1015.06 1014.76 1014.38 1014.00 1013.64 1013.32
1022.76 1022.60 1022.44 1022.28 1022.22 1022.16 1021.98 1021.80 1021.62 1021.44 1021.30 1021.12 1020.86 1020.66 1020.46 1020.28 1020.00 1019.84 1019.58 1019.36 1019.18 1018.96 1018.56 1018.22 1017.94 1017.70 1017.66 1017.52 1017.36 1017.14 1016.96 1016.86 1016.46 1016.00 1015.56 1015.06 1014.64 1014.30 1013.96 1013.52 1013.10 1012.82
1022.80 1022.66 1022.56 1022.40 1022.28 1022.20 1022.06 1021.88 1021.66 1021.50 1021.38 1021.08 1020.82 1020.64 1020.40 1020.12 1019.86 1019.62 1019.42 1019.30 1019.06 1018.76 1018.40 1017.94 1017.58 1017.48 1017.32 1017.12 1016.98 1016.78 1016.56 1016.46 1016.00 1015.58 1015.08 1014.54 1014.04 1013.66 1013.34 1012.94 1012.56 1012.30
1023.02 1022.90 1022.78 1022.60 1022.46 1022.30 1022.16 1021.94 1021.72 1021.58 1021.36 1021.00 1020.80 1020.54 1020.26 1020.02 1019.74 1019.58 1019.30 1019.04 1018.80 1018.60 1018.24 1017.64 1017.06 1017.10 1016.96 1016.72 1016.62 1016.46 1016.26 1016.00 1015.54 1015.12 1014.60 1014.04 1013.50 1013.04 1012.68 1012.26 1011.96 1011.78
1023.10 1023.04 1022.96 1022.78 1022.58 1022.42 1022.24 1022.04 1021.80 1021.56 1021.32 1021.04 1020.84 1020.54 1020.24 1019.94 1019.64 1019.30 1019.00 1018.78 1018.50 1018.32 1018.08 1017.42 1016.70 1016.56 1016.66 1016.42 1016.20 1016.14 1015.98 1015.56 1015.16 1014.78 1014.26 1013.68 1013.10 1012.52 1012.04 1011.66 1011.42 1011.26
1023.36 1023.34 1023.28 1023.12 1022.90 1022.78 1022.54 1022.28 1022.08 1021.76 1021.48 1021.28 1021.12 1020.66 1020.24 1019.96 1019.58 1019.02 1018.68 1018.46 1018.28 1017.94 1017.68 1017.40 1016.54 1015.92 1016.14 1016.10 1015.84 1015.70 1015.72 1015.40 1014.88 1014.36 1013.82 1013.30 1012.62 1012.06 1011.48 1011.06 1010.74 1010.72
1023.70 1023.74 1023.64 1023.52 1023.32 1023.12 1022.88 1022.64 1022.30 1021.94 1021.62 1021.36 1021.10 1020.76 1020.24 1019.68 1019.34 1019.00 1018.48 1018.12 1017.92 1017.80 1017.28 1017.02 1016.38 1015.62 1015.34 1015.48 1015.46 1015.32 1015.30 1015.08 1014.66 1014.06 1013.46 1012.76 1012.26 1011.58 1010.98 1010.52 1010.08 1009.92
1023.96 1023.96 1023.86 1023.68 1023.48 1023.24 1023.04 1022.74 1022.34 1021.92 1021.68 1021.46 1021.10 1020.70 1020.12 1019.58 1019.32 1019.06 1018.72 1018.00 1017.48 1017.34 1016.98 1016.54 1016.10 1015.42 1014.90 1014.74 1014.90 1014.82 1014.78 1014.70 1014.34 1013.84 1013.10 1012.46 1011.98 1011.42 1010.74 1010.08 1009.72 1009.26
Wind_Speed
4 4 4 4 4 4 4 5 5 5 5 5 5 5 5 5 4 5 7 7 7 8 8 9 9 9 8 9 10 10 10 9 8 7 9 10 11 13 14 14 11 10
3 3 3 3 3 3 4 4 6 6 6 5 4 5 4 4 4 4 5 6 7 8 8 8 9 9 9 8 9 10 10 9 11 7 8 10 10 10 13 13 13 11
2 2 3 3 3 3 4 5 5 6 5 5 6 6 4 3 4 4 5 6 6 7 8 8 9 9 9 9 9 9 9 11 12 8 8 10 9 9 9 10 10 12
1 1 1 1 2 3 3 3 4 4 5 5 4 5 5 6 5 5 7 6 6 7 7 9 9 9 9 9 9 9 10 10 11 9 10 9 9 8 8 9 10 10
3 3 3 3 2 3 3 3 3 3 4 5 5 5 5 6 6 6 6 7 8 8 8 8 9 9 9 8 9 10 10 10 10 11 11 12 11 8 8 8 9 10
4 4 3 3 3 3 4 3 2 3 4 4 4 4 5 5 5 6 7 7 7 7 8 8 8 8 8 9 9 10 10 10 10 10 12 11 12 12 10 10 12 13
5 4 4 3 3 3 4 3 2 2 3 4 5 5 5 5 6 6 7 7 7 7 7 8 8 8 8 8 9 11 10 11 11 11 11 10 10 12 10 12 13 13
6 4 3 3 3 2 3 2 1 2 3 3 4 4 4 5 6 6 6 7 7 7 7 8 8 9 9 9 10 10 11 10 10 11 11 12 10 12 10 9 9 11
4 3 3 3 2 2 2 2 2 2 2 3 3 3 3 4 4 5 6 6 7 7 7 7 8 9 8 9 10 10 11 11 11 11 11 11 11 11 10 9 11 11
5 4 4 4 3 3 4 4 3 3 2 3 3 3 4 3 4 4 5 6 6 7 7 8 8 8 9 9 11 11 11 12 12 12 12 11 12 11 10 10 11 11
6 5 5 5 5 4 5 4 4 3 2 2 3 3 3 4 3 3 4 4 5 6 7 8 8 9 9 9 9 9 10 11 12 12 11 11 11 11 11 11 12 12
6 6 6 6 5 5 5 4 4 4 3 3 3 3 3 3 3 3 3 5 5 6 6 7 8 8 9 10 10 9 10 11 11 10 11 12 12 12 11 11 12 13
6 6 6 6 6 5 5 4 5 4 4 4 4 3 4 4 3 4 3 4 5 5 6 7 7 7 8 8 9 10 11 11 11 12 12 11 12 13 12 12 12 13
5 5 5 5 5 4 4 5 5 5 5 4 4 4 4 5 5 5 4 4 5 5 6 6 7 7 8 8 8 9 9 10 11 12 13 13 13 12 12 12 14 14
4 4 4 4 4 4 5 6 5 5 4 4 4 4 3 4 4 5 5 5 5 5 6 6 6 7 6 6 7 9 9 10 11 13 13 13 13 13 13 14 14 14
4 4 4 5 5 6 7 7 6 6 6 5 5 5 5 4 5 5 4 5 6 6 6 5 6 6 8 11 11 9 10 9 9 11 12 13 13 14 14 14 15 15
5 5 5 6 6 6 6 7 7 6 6 6 6 6 7 6 6 6 6 6 6 6 7 6 6 6 11 11 13 15 11 11 10 11 11 12 13 14 15 14 13 15
4 4 4 5 5 6 6 6 5 4 4 6 6 5 6 6 7 7 7 7 6 7 7 7 7 10 14 14 14 15 14 11 11 10 10 11 11 12 12 12 13 12
4 4 4 4 5 6 3 4 3 3 3 4 4 4 5 6 7 7 8 7 8 9 9 9 9 10 12 14 15 16 17 14 10 11 11 12 12 12 13 13 13 12
6 6 6 6 6 5 6 5 5 5 5 5 5 5 5 7 5 8 8 8 8 9 10 9 9 10 13 14 15 17 17 15 11 12 12 13 14 14 13 14 14 13
7 7 7 7 7 5 5 5 5 6 6 5 5 5 6 6 7 7 7 6 9 8 10 11 9 12 14 15 15 17 17 15 12 12 12 13 14 14 15 15 16 14
6 6 7 7 7 6 6 6 6 6 7 6 6 6 6 6 6 5 8 9 7 7 10 12 11 11 13 15 15 15 17 11 11 12 13 13 14 15 15 14 14 14
7 7 8 8 7 8 8 8 8 9 7 6 7 7 7 7 7 7 6 8 10 8 8 11 12 10 11 14 15 15 13 9 9 9 11 13 14 14 14 14 14 13
7 8 8 8 8 9 9 9 8 7 6 7 8 10 9 8 8 9 8 6 8 11 9 9 13 16 15 14 16 15 12 10 9 10 11 11 12 14 14 13 14 18
6 7 7 7 8 8 8 10 9 8 8 7 7 8 9 8 7 8 10 9 9 10 14 13 13 16 17 14 14 15 12 7 9 10 11 11 11 13 13 13 13 13
6 7 7 8 9 9 8 8 8 8 8 9 9 8 9 9 9 9 12 11 10 11 12 10 13 14 17 21 17 17 16 10 9 11 12 13 12 12 13 12 13 13
Wind_Direction
221 223 229 235 246 256 261 257 257 258 250 246 245 246 242 249 240 232 250 252 248 248 246 243 243 242 242 244 246 248 249 245 242 223 221 224 228 228 233 237 236 237
246 242 251 255 259 258 265 271 273 272 271 262 261 263 260 257 255 247 248 248 253 254 256 256 253 253 252 251 249 250 250 247 245 226 224 230 235 232 238 239 239 240
252 241 235 245 258 278 286 281 275 274 274 279 282 276 272 270 262 251 248 251 254 251 254 259 256 253 253 254 255 254 253 253 253 242 227 234 236 231 234 235 233 233
196 239 281 289 292 296 295 284 281 280 284 282 281 286 286 281 279 275 274 262 258 260 260 261 258 256 254 253 254 255 255 255 255 253 249 244 239 239 237 235 238 239
10 8 3 349 330 313 295 275 278 290 291 294 299 299 293 291 287 282 274 270 267 267 266 263 261 259 257 256 253 257 258 259 256 252 251 254 252 239 240 238 238 237
32 16 3 346 339 326 300 294 307 309 307 300 298 301 296 294 285 278 273 271 270 268 268 267 266 264 262 259 259 258 260 260 259 255 253 252 256 254 253 249 252 248
24 15 5 349 333 311 291 293 322 318 311 311 308 295 294 287 283 277 277 276 276 274 273 274 274 274 270 266 262 265 264 264 265 261 257 257 256 257 250 253 255 254
29 20 5 355 316 290 276 293 341 342 333 313 298 298 301 294 288 288 284 285 284 283 282 281 281 280 278 270 267 268 268 265 265 262 260 259 257 259 256 252 255 255
36 30 16 1 345 337 330 350 16 5 347 317 313 312 305 295 298 298 295 289 288 286 286 284 280 278 276 271 268 267 268 268 264 263 259 258 258 257 258 256 254 253
45 31 28 18 7 4 354 8 11 17 356 332 325 314 308 304 301 301 299 297 292 289 286 283 281 275 275 273 271 271 270 269 268 263 260 257 259 262 261 257 254 258
35 29 27 24 17 9 0 359 12 14 5 341 332 318 318 314 305 300 293 291 293 294 292 289 284 282 280 277 273 270 269 269 267 266 263 259 258 259 259 256 257 254
28 22 21 18 9 6 359 356 1 14 358 355 343 331 319 306 306 305 296 293 289 286 287 288 287 286 284 283 281 279 274 271 268 260 260 261 262 260 258 256 255 258
21 15 7 7 6 357 348 355 6 6 5 359 348 326 324 322 318 305 292 292 288 286 283 283 285 281 279 280 281 281 279 275 272 269 265 262 258 258 257 255 255 256
16 4 2 0 350 344 350 359 1 6 2 350 341 338 337 332 326 320 311 290 286 283 282 282 281 282 278 274 274 273 273 274 275 273 272 269 266 261 257 254 253 252
6 359 349 344 342 346 358 1 359 357 350 341 340 332 319 320 312 310 307 299 283 274 277 273 271 270 267 270 277 274 270 273 275 274 271 271 270 267 263 262 261 257
1 359 347 350 359 1 1 355 353 352 345 344 342 335 327 318 314 302 290 291 295 292 278 265 264 263 262 261 259 268 278 276 275 274 275 274 273 272 269 263 261 260
6 357 353 1 360 356 353 350 347 343 338 334 334 330 322 321 313 306 302 295 289 288 288 278 268 265 274 271 270 264 263 271 269 271 270 273 275 274 274 275 270 265
356 350 352 353 356 354 344 340 327 323 324 322 318 317 315 309 299 295 297 294 286 281 274 272 273 279 283 283 277 275 269 269 273 271 268 266 264 268 270 273 273 269
351 352 350 355 356 343 334 322 322 315 320 324 320 316 305 301 304 300 294 292 283 282 277 270 269 269 273 275 275 276 277 274 273 270 270 269 269 267 266 267 269 270
359 353 354 353 347 345 341 336 336 335 333 322 312 312 313 308 304 299 297 298 295 293 289 283 274 280 278 275 274 274 274 275 269 270 268 269 269 267 265 266 263 265
357 351 349 344 343 342 337 333 331 326 326 323 321 316 313 314 315 311 303 296 292 291 291 284 274 279 278 274 270 270 271 270 269 267 265 265 266 263 260 260 262 263
353 346 340 339 337 336 333 331 330 327 323 322 316 311 301 295 293 291 293 296 289 286 287 284 279 274 272 270 266 266 270 269 266 264 264 266 267 266 263 262 263 262
353 350 345 346 343 341 340 338 335 329 326 329 319 310 307 302 294 293 290 294 296 288 276 283 283 280 277 279 279 275 277 274 272 268 266 266 265 268 267 265 263 260
357 357 350 345 345 342 336 331 326 320 321 325 318 315 310 304 300 297 293 280 295 299 292 288 293 294 291 282 281 278 269 273 274 273 268 265 268 266 267 264 261 258
356 356 349 344 339 334 332 325 323 322 316 317 314 309 298 299 301 303 304 299 297 298 297 292 291 295 295 290 283 281 277 266 269 274 272 267 271 274 272 272 270 264
351 350 345 342 334 328 326 323 317 318 321 320 315 312 311 311 310 307 306 300 299 301 299 293 296 296 299 298 296 289 279 272 271 274 272 275 276 278 281 278 275 274